O3B FM10

Last updated on Wed Jun 24 2026 00:03:25 GMT+0000 (Coordinated Universal Time)

1 40348U 14083A 26172.15721175 -.00000023 00000+0 00000+0 0 9996 2 40348 0.0371 329.8397 0002662 119.1310 271.0576 5.00115252210096
UTC large
Height (km)
Speed (km/s)
/
Latitude / Longitude
Inclination (degrees)
Orbital Period (minutes)
Azimuth
Elevation
Range (km)
Doppler Factor

Next 0 passes for location: London (51.5072 / 0.1276)

No passes found over London.